GOES 9 [-]

Last updated on Fri Dec 29 2023 00:02:21 GMT+0000 (Coordinated Universal Time)

1 23581U 95025A 23362.33778434 -.00000165 00000+0 00000+0 0 9996 2 23581 13.1567 20.8091 0005537 155.1446 227.3864 0.98801827103841

Satellite not in orbit

GOES 9 [-]